Weather History for Athens, OH

Change the Weather History Date:

Saturday, February 9, 2013

  Actual Average (KPKB) Record (KPKB)
Temperature  
Mean Temperature 30 °F 34 °F  
Max Temperature 37 °F 42 °F 68 °F (2001)
Min Temperature 23 °F 25 °F -12 °F (1899)
Degree Days  
Heating Degree Days 35 31  
Since 1 July heating degree days 3234  
Moisture  
Dew Point 18 °F    
Average Humidity 64    
Maximum Humidity 84    
Minimum Humidity 40    
Precipitation  
Precipitation 0.00 in 0.10 in 0.48 in (2010)
Sea Level Pressure  
Sea Level Pressure 30.35 in    
Wind  
Wind Speed 4 mph (NNW)    
Max Wind Speed 10 mph    
Max Gust Speed 16 mph    
Visibility 10 miles    
Events      
T = Trace of Precipitation, MM = Missing Value Source: NWS Daily Summary

Daily Weather History Graph

Daily Weather History Graph

Search for Another Location

Airport:

Trip Planner

Search our weather history database for the weather conditions in past years. The results will help you decide how hot, cold, wet, or windy it might be!

Date:

Astronomy

Feb. 09, 2013 Rise Set
Actual Time 7:27 AM EST 5:59 PM EST
Civil Twilight 6:59 AM EST 6:27 PM EST
Nautical Twilight 6:28 AM EST 6:58 PM EST
Astronomical Twilight 5:56 AM EST 7:29 PM EST
Moon 6:38 AM EST (2/9) 5:40 PM EST (2/9)
Length of Visible Light 11h 27m
Length of Day
10h 31m
Waning Crescent, 0% of the Moon is Illuminated
Feb 9
Waning Crescent
Feb 10
New
Feb 17
First Quarter
Feb 25
Full
Mar 4
Last Quarter

Hourly Weather History & Observations

Time (EST) Temp. Windchill Dew Point Humidity Pressure Visibility Wind Dir Wind Speed Gust Speed Precip Events Conditions
12:15 AM 28.8 °F 19.5 °F 19.9 °F 70% 30.29 in 10.0 mi WNW 10.4 mph - N/A   Overcast
12:35 AM 28.4 °F 19.7 °F 18.9 °F 67% 30.29 in 10.0 mi NW 9.2 mph 16.1 mph N/A   Overcast
12:55 AM 28.4 °F 21.2 °F 19.2 °F 69% 30.30 in 10.0 mi NNW 6.9 mph - N/A   Overcast
1:15 AM 28.4 °F 22.2 °F 19.2 °F 69% 30.30 in 10.0 mi NW 5.8 mph - N/A   Overcast
1:35 AM 28.4 °F 21.2 °F 18.5 °F 66% 30.31 in 10.0 mi NW 6.9 mph - N/A   Overcast
1:55 AM 28.2 °F 20.2 °F 17.8 °F 65% 30.32 in 10.0 mi WNW 8.1 mph - N/A   Overcast
2:15 AM 28.0 °F 21.7 °F 17.6 °F 65% 30.32 in 10.0 mi WNW 5.8 mph - N/A   Overcast
2:35 AM 27.7 °F 18.8 °F 18.1 °F 67% 30.32 in 10.0 mi NNW 9.2 mph - N/A   Overcast
2:55 AM 27.1 °F 19.7 °F 17.4 °F 67% 30.33 in 10.0 mi North 6.9 mph - N/A   Overcast
3:15 AM 27.0 °F 20.5 °F 17.2 °F 67% 30.33 in 10.0 mi North 5.8 mph - N/A   Overcast
3:35 AM 26.6 °F 19.1 °F 16.9 °F 67% 30.33 in 10.0 mi North 6.9 mph - N/A   Overcast
3:55 AM 26.6 °F 19.1 °F 16.7 °F 66% 30.33 in 10.0 mi North 6.9 mph - N/A   Overcast
4:15 AM 26.4 °F 20.9 °F 17.2 °F 68% 30.34 in 10.0 mi NW 4.6 mph - N/A   Overcast
4:35 AM 26.6 °F 22.6 °F 17.1 °F 67% 30.35 in 10.0 mi WNW 3.5 mph - N/A   Overcast
4:55 AM 26.6 °F - 17.4 °F 68% 30.36 in 10.0 mi Calm Calm - N/A   Overcast
5:15 AM 26.6 °F 22.6 °F 17.2 °F 68% 30.36 in 10.0 mi WNW 3.5 mph - N/A   Overcast
5:35 AM 26.4 °F - 16.9 °F 67% 30.36 in 10.0 mi Calm Calm - N/A   Overcast
5:55 AM 26.4 °F - 17.4 °F 69% 30.36 in 10.0 mi Calm Calm - N/A   Overcast
6:15 AM 26.1 °F - 17.6 °F 70% 30.37 in 10.0 mi Calm Calm - N/A   Overcast
6:35 AM 25.7 °F - 16.5 °F 68% 30.37 in 10.0 mi Calm Calm - N/A   Overcast
6:55 AM 25.0 °F - 16.3 °F 70% 30.38 in 10.0 mi Calm Calm - N/A   Mostly Cloudy
7:15 AM 24.8 °F - 16.2 °F 70% 30.38 in 10.0 mi Calm Calm - N/A   Scattered Clouds
7:35 AM 24.3 °F - 16.7 °F 73% 30.39 in 10.0 mi Calm Calm - N/A   Scattered Clouds
7:55 AM 23.0 °F - 17.8 °F 80% 30.40 in 10.0 mi Calm Calm - N/A   Mostly Cloudy
8:15 AM 24.4 °F - 18.7 °F 79% 30.41 in 10.0 mi Calm Calm - N/A   Mostly Cloudy
8:35 AM 25.9 °F - 17.6 °F 71% 30.42 in 10.0 mi Calm Calm - N/A   Mostly Cloudy
8:55 AM 27.5 °F 23.6 °F 16.9 °F 64% 30.42 in 10.0 mi ENE 3.5 mph - N/A   Mostly Cloudy
9:15 AM 28.4 °F 23.3 °F 17.2 °F 63% 30.41 in 10.0 mi NE 4.6 mph - N/A   Scattered Clouds
9:35 AM 28.6 °F - 16.7 °F 61% 30.42 in 10.0 mi Calm Calm - N/A   Scattered Clouds
9:55 AM 28.4 °F 23.3 °F 16.7 °F 62% 30.42 in 10.0 mi NNE 4.6 mph - N/A   Scattered Clouds
10:15 AM 29.3 °F 24.3 °F 16.5 °F 59% 30.42 in 10.0 mi ESE 4.6 mph - N/A   Clear
10:35 AM 29.7 °F - 16.3 °F 58% 30.42 in 10.0 mi Calm Calm - N/A   Clear
10:55 AM 30.2 °F - 17.4 °F 59% 30.42 in 10.0 mi Calm Calm - N/A   Clear
11:15 AM 30.7 °F - 16.9 °F 56% 30.41 in 10.0 mi Calm Calm - N/A   Clear
11:35 AM 30.2 °F - 17.2 °F 59% 30.40 in 10.0 mi Calm Calm - N/A   Clear
11:55 AM 31.8 °F 26.2 °F 18.0 °F 57% 30.40 in 10.0 mi NE 5.8 mph - N/A   Clear
12:15 PM 32.0 °F 27.5 °F 17.8 °F 56% 30.39 in 10.0 mi North 4.6 mph - N/A   Clear
12:35 PM 32.5 °F 29.3 °F 18.9 °F 57% 30.38 in 10.0 mi NNW 3.5 mph - N/A   Clear
12:55 PM 33.3 °F - 18.5 °F 55% 30.37 in 10.0 mi Calm Calm - N/A   Clear
1:15 PM 34.5 °F - 18.9 °F 53% 30.37 in 10.0 mi Calm Calm - N/A   Clear
1:35 PM 35.2 °F - 18.7 °F 51% 30.36 in 10.0 mi Calm Calm - N/A   Clear
1:55 PM 35.8 °F - 19.2 °F 51% 30.37 in 10.0 mi Calm Calm - N/A   Clear
2:15 PM 36.3 °F - 18.9 °F 49% 30.36 in 10.0 mi Calm Calm - N/A   Clear
2:35 PM 36.7 °F - 16.9 °F 45% 30.36 in 10.0 mi Calm Calm - N/A   Clear
2:55 PM 37.0 °F - 17.1 °F 44% 30.36 in 10.0 mi Calm Calm - N/A   Clear
3:15 PM 37.4 °F 34.9 °F 17.4 °F 44% 30.35 in 10.0 mi ENE 3.5 mph - N/A   Clear
3:35 PM 37.4 °F - 17.1 °F 44% 30.35 in 10.0 mi North - - N/A   Clear
3:55 PM 37.4 °F - 15.8 °F 41% 30.35 in 10.0 mi Calm Calm - N/A   Clear
4:15 PM 37.2 °F - 15.3 °F 41% 30.34 in 10.0 mi Calm Calm - N/A   Clear
4:35 PM 37.4 °F - 14.7 °F 40% 30.34 in 10.0 mi Calm Calm - N/A   Clear
4:55 PM 37.4 °F - 16.5 °F 43% 30.34 in 10.0 mi Calm Calm - N/A   Clear
5:15 PM 37.2 °F - 16.7 °F 43% 30.34 in 10.0 mi Calm Calm - N/A   Clear
5:35 PM 36.9 °F - 17.2 °F 45% 30.34 in 10.0 mi Calm Calm - N/A   Clear
5:55 PM 35.8 °F - 16.7 °F 46% 30.34 in 10.0 mi Calm Calm - N/A   Clear
6:15 PM 33.1 °F - 19.9 °F 59% 30.34 in 10.0 mi Calm Calm - N/A   Clear
6:35 PM 32.2 °F - 20.5 °F 62% 30.33 in 10.0 mi Calm Calm - N/A   Clear
6:55 PM 31.1 °F - 19.4 °F 62% 30.33 in 10.0 mi Calm Calm - N/A   Clear
7:15 PM 29.5 °F - 20.3 °F 69% 30.34 in 10.0 mi Calm Calm - N/A   Clear
7:35 PM 28.9 °F - 21.0 °F 72% 30.34 in 10.0 mi Calm Calm - N/A   Clear
7:55 PM 27.5 °F - 21.6 °F 78% 30.33 in 10.0 mi Calm Calm - N/A   Clear
8:15 PM 28.0 °F - 20.8 °F 74% 30.33 in 10.0 mi Calm Calm - N/A   Clear
8:35 PM 27.5 °F - 21.6 °F 78% 30.33 in 10.0 mi Calm Calm - N/A   Clear
8:55 PM 26.8 °F - 21.7 °F 81% 30.34 in 10.0 mi Calm Calm - N/A   Clear
9:15 PM 26.8 °F - 21.7 °F 81% 30.33 in 10.0 mi Calm Calm - N/A   Clear
9:35 PM 27.1 °F - 21.4 °F 79% 30.33 in 10.0 mi Calm Calm - N/A   Clear
9:55 PM 25.9 °F - 21.2 °F 82% 30.32 in 10.0 mi Calm Calm - N/A   Clear
10:15 PM 25.7 °F - 20.3 °F 80% 30.32 in 10.0 mi Calm Calm - N/A   Clear
10:35 PM 25.5 °F - 20.5 °F 81% 30.31 in 10.0 mi Calm Calm - N/A   Clear
10:55 PM 24.6 °F - 20.5 °F 84% 30.30 in 10.0 mi Calm Calm - N/A   Clear
11:15 PM 23.7 °F - 19.6 °F 84% 30.30 in 10.0 mi Calm Calm - N/A   Clear
11:35 PM 23.9 °F - 19.4 °F 83% 30.29 in 10.0 mi Calm Calm - N/A   Clear
11:55 PM 23.5 °F - 19.2 °F 84% 30.29 in 10.0 mi Calm Calm - N/A   Clear